No particular awareness of the weather is required.    There are no Weather-warnings


Meteo18 Weather Cam more information Meteo18 Weather Cam


Thunder radar more information blitzortung!


Rain radar more information rain snow radar


Visit our other weather sites:

Template documentation
and downloads

And another site



Weather Underground History page Text

Daily Summary for September 13, 2017 Units:  English    Metric   Both
« Previous Day
Next Day »
Daily Weekly Monthly Yearly Custom
  High: Low: Average:
Temperature: 72.9 °F 54.3 °F 63.1 °F
Dew Point: 63.3 °F 48.4 °F 57.9 °F
Humidity: 96 % 66 % 84 %
Wind Speed: 27 mph 2 mph 11.8 mph
Wind Gust: 35 mph - -
Wind:- - SW
Pressure: 30 in 29.9 in -
Precipitation: 0.15 in    
Historical Graphs
 
 
Tabular Data for September 13, 2017
Time Temperature Dew Point Pressure Wind Wind Speed Wind Gust Humidity Rainfall Rate (Hourly)
00:02 54.5 °F 48.4 °F 30 in SW 6 mph 8 mph 80 % 0 in
00:07 54.3 °F 48.6 °F 30 in SW 4 mph 9 mph 81 % 0 in
00:12 54.3 °F 48.9 °F 30 in SSW 2 mph 9 mph 82 % 0 in
00:17 54.5 °F 49.1 °F 30 in SSW 6 mph 9 mph 82 % 0 in
00:22 54.7 °F 49.3 °F 30 in SSW 6 mph 8 mph 82 % 0 in
00:27 54.7 °F 49.3 °F 30 in SW 7 mph 8 mph 82 % 0 in
00:32 54.7 °F 49.3 °F 30 in WSW 4 mph 8 mph 82 % 0 in
00:37 54.9 °F 49.5 °F 30 in SW 3 mph 8 mph 82 % 0 in
00:42 54.9 °F 49.5 °F 30 in SSE 6 mph 9 mph 82 % 0 in
00:52 54.9 °F 49.5 °F 30 in SW 4 mph 11 mph 82 % 0 in
00:57 55 °F 49.6 °F 30 in SW 7 mph 12 mph 82 % 0 in
01:02 55.2 °F 49.8 °F 30 in SW 9 mph 12 mph 82 % 0 in
01:07 55.2 °F 49.8 °F 30 in SW 5 mph 13 mph 82 % 0 in
01:12 55.4 °F 50 °F 30 in South 6 mph 13 mph 82 % 0 in
01:17 55.6 °F 49.8 °F 30 in SW 4 mph 14 mph 81 % 0 in
01:22 55.6 °F 49.8 °F 30 in SW 7 mph 14 mph 81 % 0 in
01:27 55.8 °F 50 °F 30 in SW 5 mph 15 mph 81 % 0 in
01:32 55.8 °F 50 °F 30 in WSW 7 mph 15 mph 81 % 0 in
01:37 55.9 °F 50.2 °F 30 in SSW 6 mph 15 mph 81 % 0 in
01:42 56.1 °F 50 °F 30 in SSW 5 mph 13 mph 80 % 0 in
01:47 56.3 °F 50.2 °F 30 in SW 9 mph 14 mph 80 % 0 in
01:52 56.5 °F 50.4 °F 30 in South 8 mph 17 mph 80 % 0 in
01:57 56.5 °F 50 °F 30 in SSW 9 mph 17 mph 79 % 0 in
02:02 56.7 °F 50.2 °F 30 in SSE 7 mph 17 mph 79 % 0 in
02:07 56.8 °F 50.4 °F 30 in SW 11 mph 17 mph 79 % 0 in
02:12 56.8 °F 50.4 °F 30 in SSW 12 mph 17 mph 79 % 0 in
02:22 57 °F 50.5 °F 30 in SW 13 mph 18 mph 79 % 0 in
02:32 57 °F 50.5 °F 30 in SSW 13 mph 20 mph 79 % 0 in
02:37 57.4 °F 50.5 °F 30 in SW 12 mph 20 mph 78 % 0 in
02:42 57.4 °F 50.5 °F 30 in SW 12 mph 22 mph 78 % 0 in
02:52 57.2 °F 50.7 °F 30 in SSW 16 mph 22 mph 79 % 0 in
03:02 57 °F 50.5 °F 30 in WSW 12 mph 18 mph 79 % 0 in
03:12 56.7 °F 50.9 °F 30 in SSW 9 mph 19 mph 81 % 0 in
03:17 56.5 °F 51.1 °F 30 in SW 9 mph 19 mph 82 % 0 in
03:22 56.5 °F 51.1 °F 30 in South 8 mph 19 mph 82 % 0 in
03:32 56.5 °F 51.4 °F 30 in SW 7 mph 17 mph 83 % 0 in
03:42 56.7 °F 51.8 °F 30 in SSW 9 mph 17 mph 84 % 0 in
03:47 56.7 °F 51.8 °F 30 in SW 10 mph 17 mph 84 % 0 in
03:52 57 °F 52 °F 29.9 in SW 10 mph 17 mph 83 % 0 in
03:57 57.4 °F 52 °F 29.9 in SSW 11 mph 19 mph 82 % 0 in
04:02 57.4 °F 52.3 °F 29.9 in WSW 9 mph 19 mph 83 % 0 in
04:07 57.6 °F 52.7 °F 29.9 in SW 14 mph 19 mph 84 % 0 in
04:12 57.4 °F 52.9 °F 29.9 in SW 12 mph 19 mph 85 % 0 in
04:17 57.4 °F 53.2 °F 29.9 in SSW 12 mph 22 mph 86 % 0 in
04:22 57.4 °F 53.6 °F 29.9 in SW 9 mph 22 mph 87 % 0 in
04:27 57 °F 53.4 °F 29.9 in SSW 17 mph 22 mph 88 % 0 in
04:32 56.7 °F 53.8 °F 29.9 in WSW 10 mph 25 mph 90 % 0 in
04:37 56.5 °F 54 °F 29.9 in SSW 6 mph 25 mph 91 % 0 in
04:42 56.3 °F 54 °F 29.9 in SW 15 mph 25 mph 92 % 0.01 in
04:47 56.1 °F 53.8 °F 29.9 in SW 10 mph 18 mph 92 % 0.01 in
04:52 56.3 °F 54.3 °F 29.9 in SSW 9 mph 18 mph 93 % 0.01 in
04:57 56.3 °F 54.3 °F 29.9 in SSW 7 mph 18 mph 93 % 0.01 in
05:02 56.3 °F 54.3 °F 29.9 in SW 13 mph 18 mph 93 % 0.01 in
05:12 56.3 °F 54.3 °F 29.9 in SSW 6 mph 18 mph 93 % 0.01 in
05:22 56.3 °F 54.3 °F 29.9 in SSW 9 mph 18 mph 93 % 0.02 in
05:27 56.5 °F 54.5 °F 29.9 in SW 9 mph 18 mph 93 % 0.02 in
05:32 56.5 °F 54.5 °F 29.9 in WSW 8 mph 18 mph 93 % 0.02 in
05:37 56.5 °F 54.5 °F 29.9 in SSW 10 mph 16 mph 93 % 0.03 in
05:42 56.7 °F 54.3 °F 29.9 in SW 10 mph 16 mph 92 % 0.03 in
05:47 56.8 °F 54.5 °F 29.9 in SW 8 mph 19 mph 92 % 0.02 in
05:52 57 °F 54.7 °F 29.9 in SW 7 mph 19 mph 92 % 0.02 in
05:57 57.2 °F 54.7 °F 29.9 in SW 13 mph 19 mph 91 % 0.02 in
06:02 57.6 °F 55 °F 29.9 in SW 9 mph 16 mph 91 % 0.02 in
06:12 57.7 °F 55.2 °F 29.9 in SW 8 mph 17 mph 91 % 0.02 in
06:17 57.7 °F 55.2 °F 29.9 in WSW 9 mph 19 mph 91 % 0.02 in
06:22 57.7 °F 55.4 °F 29.9 in SW 15 mph 19 mph 92 % 0.02 in
06:32 57.7 °F 55.4 °F 29.9 in SW 12 mph 22 mph 92 % 0.02 in
06:37 57.7 °F 55.8 °F 29.9 in SSW 16 mph 22 mph 93 % 0.02 in
06:42 57.7 °F 55.8 °F 29.9 in SW 15 mph 22 mph 93 % 0.01 in
06:47 57.7 °F 55.8 °F 29.9 in SW 7 mph 22 mph 93 % 0.01 in
06:52 57.9 °F 55.9 °F 29.9 in WSW 14 mph 21 mph 93 % 0.02 in
06:57 57.7 °F 55.9 °F 29.9 in SW 11 mph 21 mph 94 % 0.02 in
07:02 57.9 °F 56.1 °F 29.9 in SSW 11 mph 18 mph 94 % 0.02 in
07:07 58.1 °F 56.3 °F 29.9 in SW 15 mph 18 mph 94 % 0.02 in
07:12 58.3 °F 56.5 °F 29.9 in SW 13 mph 19 mph 94 % 0.02 in
07:17 58.3 °F 56.5 °F 29.9 in WSW 14 mph 21 mph 94 % 0.02 in
07:22 58.3 °F 56.5 °F 29.9 in SW 12 mph 21 mph 94 % 0.02 in
07:32 58.5 °F 57 °F 29.9 in SSW 11 mph 21 mph 95 % 0.02 in
07:37 58.5 °F 57 °F 29.9 in West 11 mph 19 mph 95 % 0.02 in
07:42 58.6 °F 56.8 °F 29.9 in SW 17 mph 19 mph 94 % 0.02 in
07:47 58.6 °F 56.8 °F 29.9 in SW 10 mph 22 mph 94 % 0.02 in
07:52 58.6 °F 56.8 °F 29.9 in SW 7 mph 22 mph 94 % 0.02 in
07:57 58.6 °F 57.2 °F 29.9 in SW 12 mph 22 mph 95 % 0.01 in
08:02 58.6 °F 57.2 °F 29.9 in SW 11 mph 22 mph 95 % 0.01 in
08:12 58.8 °F 57.4 °F 29.9 in SW 8 mph 21 mph 95 % 0.01 in
08:17 58.8 °F 57.4 °F 29.9 in SW 13 mph 19 mph 95 % 0.02 in
08:22 58.8 °F 57.4 °F 29.9 in WSW 9 mph 19 mph 95 % 0.02 in
08:32 58.8 °F 57.4 °F 29.9 in SW 16 mph 18 mph 95 % 0.01 in
08:42 59.2 °F 58.1 °F 29.9 in SW 16 mph 18 mph 96 % 0.02 in
08:47 59.2 °F 58.1 °F 29.9 in SW 13 mph 19 mph 96 % 0.02 in
08:52 59.4 °F 58.3 °F 29.9 in SSW 6 mph 19 mph 96 % 0.02 in
08:57 59.4 °F 58.3 °F 29.9 in SW 12 mph 19 mph 96 % 0.02 in
09:02 59.5 °F 58.5 °F 29.9 in SW 9 mph 18 mph 96 % 0.02 in
09:12 59.7 °F 58.6 °F 29.9 in SW 6 mph 17 mph 96 % 0.01 in
09:17 59.7 °F 58.6 °F 29.9 in SSW 9 mph 16 mph 96 % 0.01 in
09:22 59.7 °F 58.6 °F 29.9 in SW 11 mph 16 mph 96 % 0.01 in
09:32 60.1 °F 59 °F 30 in SSW 10 mph 16 mph 96 % 0.01 in
09:42 60.3 °F 59.2 °F 30 in SW 9 mph 19 mph 96 % 0.01 in
09:52 60.3 °F 59.2 °F 30 in WSW 7 mph 16 mph 96 % 0.01 in
09:57 60.4 °F 59.4 °F 30 in West 6 mph 16 mph 96 % 0.01 in
10:02 60.4 °F 59.4 °F 30 in South 9 mph 15 mph 96 % 0.01 in
10:12 60.8 °F 59.7 °F 30 in WSW 9 mph 12 mph 96 % 0.01 in
10:17 61.2 °F 60.1 °F 30 in WSW 6 mph 17 mph 96 % 0.01 in
10:22 61.2 °F 60.1 °F 30 in WSW 14 mph 17 mph 96 % 0.01 in
10:27 61.3 °F 60.3 °F 30 in SW 14 mph 17 mph 96 % 0 in
10:32 61.5 °F 60.4 °F 30 in SW 7 mph 19 mph 96 % 0 in
10:42 62.1 °F 61 °F 30 in SW 12 mph 17 mph 96 % 0 in
10:47 62.1 °F 61 °F 30 in SW 6 mph 17 mph 96 % 0 in
10:52 62.2 °F 61.2 °F 30 in SSW 8 mph 17 mph 96 % 0.01 in
10:57 62.2 °F 61.2 °F 30 in WSW 10 mph 19 mph 96 % 0.01 in
11:02 62.2 °F 61.2 °F 30 in SW 6 mph 19 mph 96 % 0.01 in
11:12 62.2 °F 61.2 °F 30 in SSW 8 mph 19 mph 96 % 0.02 in
11:17 62.2 °F 61.2 °F 30 in SSW 6 mph 18 mph 96 % 0.02 in
11:22 62.4 °F 61.3 °F 30 in SSW 8 mph 18 mph 96 % 0.03 in
11:32 62.8 °F 61.7 °F 30 in SW 8 mph 19 mph 96 % 0.03 in
11:42 62.8 °F 61.7 °F 30 in WSW 14 mph 19 mph 96 % 0.04 in
11:47 62.8 °F 61.3 °F 30 in WSW 11 mph 19 mph 95 % 0.04 in
11:52 63 °F 61.5 °F 30 in WSW 14 mph 19 mph 95 % 0.04 in
12:02 63 °F 61.5 °F 30 in SW 9 mph 19 mph 95 % 0.05 in
12:12 63 °F 61.9 °F 30 in SW 13 mph 17 mph 96 % 0.04 in
12:17 63 °F 61.5 °F 30 in SW 9 mph 21 mph 95 % 0.04 in
12:22 63.1 °F 61.7 °F 30 in SW 13 mph 21 mph 95 % 0.04 in
12:32 63.5 °F 62.1 °F 30 in SW 10 mph 21 mph 95 % 0.03 in
12:42 63.9 °F 62.1 °F 30 in WSW 7 mph 23 mph 94 % 0.02 in
12:52 64.2 °F 62.2 °F 30 in SW 8 mph 23 mph 93 % 0.02 in
12:57 64.4 °F 62.4 °F 30 in SW 14 mph 21 mph 93 % 0.02 in
13:02 64.6 °F 62.4 °F 30 in WSW 15 mph 21 mph 93 % 0.02 in
13:12 64.9 °F 62.6 °F 30 in SW 10 mph 20 mph 92 % 0.01 in
13:17 65.1 °F 62.8 °F 30 in SSW 10 mph 20 mph 92 % 0 in
13:22 65.5 °F 62.8 °F 30 in SSW 13 mph 21 mph 91 % 0 in
13:27 65.8 °F 62.8 °F 30 in SW 11 mph 21 mph 90 % 0 in
13:32 66.2 °F 62.8 °F 29.9 in SW 17 mph 21 mph 89 % 0 in
13:37 66.4 °F 63 °F 30 in WSW 8 mph 21 mph 89 % 0 in
13:42 66.6 °F 63.1 °F 29.9 in WSW 6 mph 23 mph 89 % 0 in
13:47 66.7 °F 63.1 °F 30 in South 8 mph 23 mph 88 % 0 in
13:52 66.7 °F 62.8 °F 30 in WSW 14 mph 22 mph 87 % 0 in
14:02 66.9 °F 63 °F 29.9 in WSW 5 mph 19 mph 87 % 0 in
14:12 67.8 °F 63.1 °F 29.9 in West 10 mph 22 mph 85 % 0 in
14:17 68.4 °F 63.3 °F 29.9 in SSW 10 mph 22 mph 84 % 0 in
14:27 68.5 °F 63.1 °F 29.9 in SW 12 mph 22 mph 83 % 0 in
14:32 68.5 °F 62.8 °F 29.9 in SW 18 mph 22 mph 82 % 0 in
14:37 68.7 °F 63 °F 29.9 in WSW 12 mph 22 mph 82 % 0 in
14:42 68.9 °F 62.4 °F 29.9 in West 13 mph 22 mph 80 % 0 in
14:47 69.1 °F 62.2 °F 29.9 in WSW 23 mph 24 mph 79 % 0 in
14:57 69.4 °F 62.6 °F 29.9 in WSW 10 mph 24 mph 79 % 0 in
15:02 69.6 °F 62.1 °F 29.9 in WSW 17 mph 23 mph 77 % 0 in
15:12 70 °F 62.4 °F 29.9 in SW 10 mph 24 mph 77 % 0 in
15:17 70 °F 62.1 °F 29.9 in WSW 19 mph 24 mph 76 % 0 in
15:22 70 °F 62.1 °F 29.9 in SW 14 mph 23 mph 76 % 0 in
15:32 70.3 °F 62.4 °F 29.9 in WSW 12 mph 26 mph 76 % 0 in
15:37 70.5 °F 62.6 °F 29.9 in WNW 11 mph 26 mph 76 % 0 in
15:42 71.4 °F 62.8 °F 29.9 in WSW 13 mph 26 mph 74 % 0 in
15:47 72 °F 62.4 °F 29.9 in SW 16 mph 32 mph 72 % 0 in
15:52 72.1 °F 62.2 °F 29.9 in WSW 16 mph 32 mph 71 % 0 in
15:57 72.1 °F 61.9 °F 29.9 in SW 10 mph 32 mph 70 % 0 in
16:02 72.1 °F 61.9 °F 29.9 in WSW 23 mph 32 mph 70 % 0 in
16:12 72 °F 62.4 °F 29.9 in SW 14 mph 31 mph 72 % 0 in
16:17 72 °F 62.4 °F 29.9 in SSE 11 mph 31 mph 72 % 0 in
16:22 71.8 °F 62.2 °F 29.9 in WNW 9 mph 26 mph 72 % 0 in
16:27 71.6 °F 62.4 °F 29.9 in SW 17 mph 26 mph 73 % 0 in
16:32 71.6 °F 62.4 °F 29.9 in WSW 16 mph 26 mph 73 % 0 in
16:42 72 °F 62.4 °F 29.9 in WSW 16 mph 27 mph 72 % 0 in
16:47 72.1 °F 62.2 °F 29.9 in West 16 mph 27 mph 71 % 0 in
16:52 72.3 °F 62.1 °F 29.9 in SW 18 mph 27 mph 70 % 0 in
16:57 72.3 °F 62.1 °F 29.9 in WSW 11 mph 27 mph 70 % 0 in
17:02 72.3 °F 62.4 °F 29.9 in WSW 21 mph 27 mph 71 % 0 in
17:12 72.5 °F 61 °F 29.9 in WSW 27 mph 27 mph 67 % 0 in
17:17 72.7 °F 61.2 °F 29.9 in SW 16 mph 28 mph 67 % 0 in
17:22 72.9 °F 60.8 °F 29.9 in SSW 9 mph 28 mph 66 % 0 in
17:27 72.7 °F 61.2 °F 29.9 in West 13 mph 28 mph 67 % 0 in
17:32 72.5 °F 61.3 °F 29.9 in WSW 7 mph 27 mph 68 % 0 in
17:42 72.7 °F 60.6 °F 29.9 in SW 13 mph 27 mph 66 % 0 in
17:47 72.7 °F 60.6 °F 29.9 in SW 22 mph 27 mph 66 % 0 in
17:52 72.3 °F 60.3 °F 29.9 in West 20 mph 29 mph 66 % 0 in
17:57 72.1 °F 60.6 °F 29.9 in WSW 14 mph 29 mph 67 % 0 in
18:02 72.1 °F 61 °F 29.9 in WSW 11 mph 29 mph 68 % 0 in
18:12 72.3 °F 61.2 °F 29.9 in WSW 11 mph 30 mph 68 % 0 in
18:17 72.3 °F 60.3 °F 29.9 in WSW 12 mph 30 mph 66 % 0 in
18:22 72.1 °F 60.6 °F 29.9 in West 11 mph 30 mph 67 % 0 in
18:27 72 °F 60.4 °F 29.9 in WSW 12 mph 30 mph 67 % 0 in
18:32 71.8 °F 60.3 °F 29.9 in WSW 20 mph 28 mph 67 % 0 in
18:37 71.4 °F 60.8 °F 29.9 in WSW 16 mph 33 mph 69 % 0 in
18:42 71.2 °F 60.6 °F 29.9 in WSW 20 mph 33 mph 69 % 0 in
18:47 71.2 °F 61 °F 29.9 in West 15 mph 29 mph 70 % 0 in
18:52 71.1 °F 60.8 °F 29.9 in WSW 20 mph 29 mph 70 % 0 in
18:57 71.1 °F 61.2 °F 29.9 in SW 14 mph 31 mph 71 % 0 in
19:02 70.9 °F 60.6 °F 29.9 in SW 17 mph 31 mph 70 % 0 in
19:12 70.3 °F 60.4 °F 29.9 in SW 17 mph 25 mph 71 % 0 in
19:17 70.3 °F 60.4 °F 29.9 in WSW 24 mph 28 mph 71 % 0 in
19:22 70.2 °F 59.9 °F 29.9 in SW 11 mph 29 mph 70 % 0 in
19:27 70.2 °F 59.9 °F 29.9 in SW 26 mph 35 mph 70 % 0 in
19:32 70 °F 60.1 °F 29.9 in South 10 mph 35 mph 71 % 0 in
19:42 69.8 °F 59.9 °F 29.9 in SW 14 mph 28 mph 71 % 0 in
19:47 69.6 °F 59.7 °F 29.9 in West 23 mph 26 mph 71 % 0 in
19:52 69.6 °F 60.3 °F 29.9 in SW 8 mph 30 mph 72 % 0 in
20:02 69.4 °F 60.4 °F 29.9 in SW 14 mph 30 mph 73 % 0 in
20:12 69.3 °F 60.3 °F 29.9 in SW 24 mph 30 mph 73 % 0 in
20:17 69.3 °F 60.3 °F 29.9 in SW 14 mph 30 mph 73 % 0 in
20:22 69.1 °F 60.4 °F 29.9 in WSW 18 mph 26 mph 74 % 0 in
20:27 69.1 °F 60.4 °F 29.9 in WSW 14 mph 26 mph 74 % 0 in
20:32 68.9 °F 60.3 °F 29.9 in WSW 24 mph 25 mph 74 % 0 in
20:42 68.7 °F 60.4 °F 29.9 in SSW 12 mph 26 mph 75 % 0 in
20:47 68.7 °F 60.8 °F 29.9 in West 13 mph 30 mph 76 % 0 in
20:52 68.5 °F 60.6 °F 29.9 in WSW 16 mph 30 mph 76 % 0 in
21:02 68.4 °F 60.8 °F 29.9 in SW 8 mph 27 mph 77 % 0 in
21:12 68.2 °F 60.6 °F 29.9 in SW 16 mph 27 mph 77 % 0 in
21:17 67.8 °F 60.6 °F 29.9 in WSW 13 mph 27 mph 78 % 0 in
21:22 67.6 °F 60.6 °F 29.9 in SW 10 mph 27 mph 78 % 0 in
21:32 67.5 °F 60.8 °F 29.9 in SW 12 mph 32 mph 79 % 0 in
21:37 67.5 °F 60.8 °F 29.9 in WSW 14 mph 32 mph 79 % 0 in
21:42 67.3 °F 61 °F 29.9 in SW 17 mph 32 mph 80 % 0 in
21:47 67.3 °F 61 °F 29.9 in WSW 12 mph 31 mph 80 % 0 in
21:57 66.9 °F 61 °F 29.9 in SW 16 mph 26 mph 81 % 0 in
22:02 66.7 °F 60.8 °F 29.9 in West 10 mph 28 mph 81 % 0 in
22:07 66.4 °F 60.8 °F 29.9 in SW 11 mph 28 mph 82 % 0 in
22:12 66 °F 60.6 °F 29.9 in WSW 12 mph 28 mph 83 % 0 in
22:17 65.8 °F 60.8 °F 29.9 in SSE 16 mph 24 mph 84 % 0 in
22:22 65.8 °F 60.8 °F 29.9 in WSW 18 mph 26 mph 84 % 0 in
22:32 65.7 °F 61 °F 29.9 in South 7 mph 27 mph 85 % 0 in
22:42 65.3 °F 60.6 °F 29.9 in WSW 13 mph 28 mph 85 % 0 in
22:47 65.3 °F 60.6 °F 29.9 in SW 13 mph 28 mph 85 % 0 in
22:52 65.5 °F 60.8 °F 29.9 in SW 11 mph 26 mph 85 % 0 in
22:57 65.1 °F 60.8 °F 29.9 in SSW 8 mph 26 mph 86 % 0 in
23:02 64.9 °F 60.3 °F 29.9 in WSW 23 mph 26 mph 85 % 0 in
23:12 65.3 °F 60.1 °F 29.9 in WSW 23 mph 26 mph 83 % 0 in
23:17 65.3 °F 59.7 °F 29.9 in SSW 13 mph 31 mph 82 % 0 in
23:22 65.1 °F 59.2 °F 29.9 in WSW 21 mph 31 mph 81 % 0 in
23:27 65.1 °F 58.8 °F 29.9 in WSW 10 mph 31 mph 80 % 0 in
23:32 64.9 °F 58.6 °F 29.9 in SW 18 mph 30 mph 80 % 0 in
23:37 64.9 °F 59 °F 29.9 in SW 11 mph 35 mph 81 % 0 in
23:42 64.8 °F 59.2 °F 29.9 in WSW 13 mph 35 mph 82 % 0 in
23:47 64.6 °F 59.4 °F 29.9 in SW 16 mph 35 mph 83 % 0 in
23:57 64.2 °F 59.4 °F 29.9 in SSW 15 mph 32 mph 84 % 0 in
Meteo18
Compliments of Weather Underground - 4 mb

Script developed by  Jim McMurry - jmcmurry@mwt.net Adapted for the template by  Wim van der Kuil - Leuven-Template.eu

You find our weather info also at:

European Weather Network

Weather Underground

Equipment we use:

Weather-station
Davis Vue

Weather-program
Meteohub

Weather-server
Raspberry PI 2 B+

Provider
1 and 1

Davis Vue

Meteohub

Raspberry PI 2 B+

1 and 1